Regional Weather Roundup
Issued by NWS

Home | Current Version | Previous Version | Text Only | Print | Product List | Glossary Off
Versions: 1 2 3 4 5 6 7 8 9 10 11 12 13 14 15 16 17 18 19 20 21 22 23 24 25 26 27 28 29 30 31 32 33 34 35 36 37 38 39 40 41 42 43 44 45 46 47 48 49 50

000
ASUS43 KMKX 170121
RWRWI

WISCONSIN REGIONAL WEATHER ROUNDUP
NATIONAL WEATHER SERVICE MILWAUKEE/SULLIVAN WI
800 PM CDT WED AUG 16 2017

NOTE: "FAIR" INDICATES FEW OR NO CLOUDS BELOW 12,000 FEET WITH NO
SIGNIFICANT WEATHER AND/OR OBSTRUCTIONS TO VISIBILITY.

WIZ001-002-006>008-014>016-023>028-170200-
NORTHWEST WISCONSIN

CITY           SKY/WX    TMP DP  RH WIND       PRES   REMARKS
SUPERIOR ARPT    N/A     62  60  95 NE12G21   29.85S
ASHLAND        MOCLDY    66  60  81 NE9       29.85F
HAYWARD        CLOUDY    72  62  71 E7        29.83F
SIREN          CLOUDY    72  64  77 E6        29.78S
CUMBERLAND     CLOUDY    70  63  78 E10       29.78F
RICE LAKE      CLOUDY    73  64  73 E10       29.80F
CHETEK         CLOUDY    73  66  78 E9G18     29.78F
LADYSMITH      CLOUDY    72  64  75 E8        29.84F
EAU CLAIRE     CLOUDY    75  64  68 E16G24    29.74F
MENOMONIE      CLOUDY    74  66  74 E12G17    29.74F
NEW RICHMOND   LGT RAIN  73  64  74 E12G17    29.73F
OSCEOLA        MOCLDY    74  65  73 E10       29.75F
$$

WIZ003>005-009-010-017-018-170200-
NORTH CENTRAL WISCONSIN

CITY           SKY/WX    TMP DP  RH WIND       PRES   REMARKS
MANITOWISH WTR PTCLDY    68  61  78 E5        29.90R
ARBOR VITAE    CLOUDY    72  62  70 SE9       29.90S
WOODRUFF       CLOUDY    72  62  70 SE9       29.90S
RHINELANDER    PTCLDY    68  60  75 E9        29.92S
EAGLE RIVER    CLOUDY    67  55  65 SE8       29.92S
LAND O LAKES   PTCLDY    66  57  72 SE7       29.94R
PHILLIPS       CLOUDY    69  63  80 E8        29.86F
TOMAHAWK         N/A     68  59  73 E6        29.91R
MEDFORD        CLOUDY    69  62  80 E10G16    29.86S
MERRILL        MOCLDY    70  63  78 E7        29.89S
$$

WIZ029-030-035-036-043>047-170200-
CENTRAL WISCONSIN

CITY           SKY/WX    TMP DP  RH WIND       PRES   REMARKS
WAUSAU         CLOUDY    70  63  78 E13       29.86F
MOSINEE        MOCLDY    70  64  83 E13       29.88F
MARSHFIELD     CLOUDY    72  63  73 E13       29.83F
STEVENS POINT  CLOUDY    69  63  80 E10G20    29.88R
WAUPACA        CLOUDY    74  64  71 E6        29.88F
WAUTOMA        LGT RAIN  71  66  84 E7        29.87R
WISC RAPIDS    CLOUDY    74  65  73 E14G22    29.85F
CAMP DOUGLAS   LGT RAIN  72  70  94 E15G24    29.81R
$$

WIZ011>013-019>022-031-037>040-048>050-170200-
NORTHEAST WISCONSIN

CITY           SKY/WX    TMP DP  RH WIND       PRES   REMARKS
ANTIGO         CLOUDY    66  60  82 SE7       29.93R
SHAWANO        CLOUDY    69  63  80 E9        29.90S
OCONTO         MOCLDY    69  62  79 E5        29.91S
STURGEON BAY   CLOUDY    66  63  90 E6        29.93
GREEN BAY      CLOUDY    69  64  84 E7        29.90S
MANITOWOC      CLOUDY    68  64  87 NE3       29.91F
APPLETON       MOCLDY    72  57  60 E9G16     29.89S
CLINTONVILLE   CLOUDY    68  61  77 E7        29.89F
OSHKOSH        CLOUDY    71  62  73 E12       29.88S
$$

WIZ032>034-041-042-053>061-170200-
SOUTHWEST WISCONSIN

CITY           SKY/WX    TMP DP  RH WIND       PRES   REMARKS
LA CROSSE      CLOUDY    76  71  85 SE8       29.72F
SPARTA         CLOUDY    71  69  95 E9        29.78F
VIROQUA        CLOUDY    72  72 100 SE9G17    29.78S
BOSCOBEL       CLOUDY    76  72  87 SE10G17   29.76F
PRAIRIE DU CHI PTCLDY    73  71  93 E7        29.74F
PLATTEVILLE    MOCLDY    74  74 100 SE9       29.80S
$$

WIZ056-057-062-063-064-067-068-170200-
SOUTH CENTRAL WISCONSIN

CITY           SKY/WX    TMP DP  RH WIND       PRES   REMARKS
REEDSBURG      CLOUDY    72  72 100 E9        29.80F
BARABOO/DELLS  CLOUDY    71  68  91 SE12      29.82F
LONE ROCK      LGT RAIN  73  72  96 E10       29.79S
MINERAL POINT  CLOUDY    72  72 100 SE12G17   29.80F FOG
MADISON        LGT RAIN  72  70  93 SE14G22   29.83F
MIDDLETON      CLOUDY    73  73 100 E3        29.84F
WATERTOWN      CLOUDY    69  69 100 E8        29.86F
MONROE         HVY RAIN  72  70  94 E10G16    29.82F
JANESVILLE     DRIZZLE   73  73 100 SE12      29.84F
$$

WIZ051-052-058>065-066-070>072-170200-
SOUTHEAST WISCONSIN

CITY           SKY/WX    TMP DP  RH WIND       PRES   REMARKS
MILWAUKEE      LGT RAIN  73  70  90 E6        29.88F
WAUKESHA       LGT RAIN  68  66  94 E8        29.91S FOG
MILWAUKEE/TIMM LGT RAIN  72  64  78 E3        29.90F
RACINE         LGT RAIN  74  72  93 SE5       29.90F
KENOSHA        CLOUDY    74  70  87 SE7       29.88F
FOND DU LAC    LGT RAIN  70  61  73 SE8       29.88S
SHEBOYGAN      CLOUDY    68  66  93 E7        29.90F
WEST BEND      LGT RAIN  66  64  94 CALM      29.90S
JUNEAU         RAIN      68  65  91 SE7       29.89S
$$

LSZ147-162-170200-
LAKE SUPERIOR

STATION/POSITION TIME  TEMP    WIND        PRES    WAVE
                       AIR SEA DIR/SP/G            HT/PER
                 (UTC) (F)     (DEG/KT/KT) (MB)    (FT/S)
W MID LAKE BUOY  0050   63 61   70/ 14/ 16 1012.0F   2/ 4
DEVILS ISLAND    0100   64      60/ 19/ 22 1011.4F
SAXON HARBOR     0030   67      60/  5/  7 1010.5F
$$

LMZ867-665-643>646-170200-
LAKE MICHIGAN

STATION/POSITION TIME  TEMP    WIND        PRES    WAVE
                       AIR SEA DIR/SP/G            HT/PER
                 (UTC) (F)     (DEG/KT/KT) (MB)    (FT/S)
S GREEN BAY BUOY 0100   69 72  110/ 10/ 12 1012.7
N MID LAKE BUOY  0050   69 68   90/  6/  8 1014.0F   1
NORTHPORT PIER   0040   68     100/  4/  7 1013.5S
KEWAUNEE LAKESHO 0054   67      50/  2/  4 1012.5F
SHEBOYGAN LAKESH 0100   70      50/  8/  8 1012.1F
PORT WASHINGTON  0030   71      50/  7/ 10 1012.9F
ATWATER BUOY     0009   71 72   CALM  /  4 1012.9R
MILWAUKEE LAKESH 0100   71      30/  1/  1   N/A
S MID LAKE BUOY  0050   75 73   70/ 10/ 10 1011.7F   1
KENOSHA   LAKESH 0100   73     130/  6/  8 1011.5
$$

TC  - TEMPERATURE IN CELSIUS
VSB - VISIBILITY IN STATUTE MILES
WCI - WIND CHILL INDEX
HX  - HEAT INDEX





USA.gov is the U.S. government's official web portal to all federal, state and local government web resources and services.